Theta_e
309 308 309 309 309 313 317 320 323 325 322 324 319 321 321 323 322 325 323 321 321 321 323 322 323 322 320 330 316 316 314 312 315 318 318 321 323 324 327 328 331 327 328 332
309 308 308 310 310 314 317 320 325 325 326 324 322 322 324 325 325 324 324 324 324 323 323 324 323 327 328 334 318 317 315 314 316 316 316 323 327 327 326 323 326 331 334 333
310 309 308 310 311 313 317 322 324 328 326 325 325 326 327 327 327 325 326 324 323 322 322 321 326 335 335 334 332 323 318 311 316 319 318 326 329 330 327 323 326 328 330 331
310 310 309 310 312 313 317 323 323 325 325 325 325 326 326 329 330 327 330 327 331 328 322 328 333 334 331 330 331 328 319 316 316 315 318 326 331 329 329 330 328 332 332 333
310 310 309 310 312 314 321 323 325 326 325 325 324 324 328 329 332 330 332 333 333 331 321 321 323 333 330 332 330 330 324 326 320 320 325 328 331 330 330 330 330 330 329 332
310 311 310 309 311 313 321 323 324 324 324 323 324 325 327 330 330 331 331 332 331 332 331 331 330 330 330 331 333 331 329 330 329 333 321 324 322 322 325 330 330 330 332 330
310 311 311 309 311 312 316 320 322 323 323 323 326 326 326 328 329 331 331 332 331 334 333 332 333 332 333 331 328 327 329 328 323 332 326 330 323 323 329 330 332 336 335 332
311 310 311 311 310 312 315 317 320 322 322 322 323 324 324 327 328 329 332 332 331 337 331 329 330 330 331 332 331 328 325 323 324 330 327 328 331 331 332 331 334 342 338 333
310 311 311 311 311 312 314 317 319 319 321 317 322 322 323 325 326 325 330 330 333 336 325 332 336 335 337 337 333 327 328 324 328 325 330 330 327 335 335 333 334 343 339 334
309 311 310 311 311 312 314 317 318 318 319 319 320 321 322 324 324 323 326 328 331 335 329 335 337 336 332 334 335 335 331 330 332 329 329 326 335 335 336 333 334 344 342 345
310 310 310 311 311 312 314 315 317 318 318 318 318 319 320 320 322 324 326 328 329 332 333 332 331 333 333 334 333 334 332 336 338 336 329 330 333 337 337 333 345 343 341 340
311 310 310 311 311 313 313 315 316 316 318 319 319 318 319 319 320 321 324 325 327 333 329 329 329 331 331 327 331 328 333 333 334 335 337 333 335 336 337 340 344 339 338 338
311 310 311 310 311 312 313 315 315 316 316 315 316 317 320 316 316 318 319 324 327 333 331 328 329 330 325 329 329 330 331 331 332 334 336 335 335 335 340 344 344 339 337 339
311 310 310 311 311 312 312 313 314 314 314 316 317 318 318 321 322 323 320 321 325 326 327 329 327 327 326 326 326 327 330 332 332 331 332 334 334 334 335 339 340 339 337 336
311 310 309 310 311 312 313 313 314 314 316 317 316 315 319 321 321 322 324 321 321 323 324 327 331 330 330 328 329 331 331 329 333 335 334 333 333 334 334 336 337 340 335 334
310 309 309 310 311 313 313 315 315 316 315 317 319 318 319 321 323 324 325 325 323 323 323 323 326 332 333 333 333 333 333 331 331 334 333 333 334 332 333 332 336 335 336 335
309 309 309 310 312 313 315 316 317 318 317 317 318 316 321 326 326 326 326 325 324 325 324 323 325 327 334 328 332 331 332 333 331 331 332 333 333 333 335 335 335 336 335 337
309 309 310 311 312 314 314 316 317 317 318 318 319 316 319 325 327 325 327 326 325 325 325 325 323 325 328 329 329 330 331 331 332 332 332 333 332 334 336 335 340 341 336 345
310 311 312 312 313 313 314 316 317 317 317 317 318 318 320 322 323 327 329 327 323 326 322 322 325 323 328 330 331 331 333 332 332 331 331 332 332 332 336 341 339 340 344 347
311 312 314 314 313 314 316 317 317 317 317 317 316 316 316 319 321 324 328 327 323 325 324 325 324 327 326 326 328 332 335 335 333 331 332 333 332 335 337 343 342 342 344 344
312 314 315 315 315 316 317 317 317 317 318 317 316 316 315 319 319 325 328 330 328 328 324 325 325 326 324 327 326 324 328 330 332 334 333 332 336 336 337 342 342 342 342 341
314 315 315 316 316 316 318 319 316 317 318 317 317 320 319 320 321 326 327 328 327 333 326 327 327 325 331 337 330 325 326 329 332 334 336 336 337 336 338 342 342 342 341 340
315 315 315 315 315 316 319 321 320 320 318 319 323 323 324 322 327 324 324 329 329 325 330 332 328 329 335 335 337 334 332 331 335 338 338 337 337 336 339 340 340 334 332 331
315 316 312 317 317 315 316 315 316 318 321 322 322 322 324 326 324 320 325 323 325 328 331 331 327 332 334 335 335 333 331 330 339 339 337 337 337 335 336 336 335 335 331 329
315 317 316 316 316 317 318 318 318 320 322 321 321 321 323 325 326 326 323 329 329 330 331 327 331 333 331 332 335 338 333 335 339 339 338 336 335 334 334 334 334 331 329 336
316 316 317 318 319 320 320 322 321 321 320 321 322 319 321 323 324 328 330 328 329 326 324 330 330 333 331 329 334 339 338 339 340 341 340 338 339 340 339 339 339 338 338 338
315 316 317 317 318 318 321 321 320 320 320 320 321 324 323 320 324 327 325 326 324 327 326 328 329 332 336 332 335 338 338 339 339 339 338 338 337 337 336 336 336 336 335 333
Wind_Speed
17 15 14 15 16 13 11 5 2 13 19 4 2 3 5 4 5 7 7 4 8 6 5 4 3 3 5 15 10 10 8 5 5 11 5 1 2 6 7 5 5 2 4 6
16 14 12 13 13 14 14 6 2 12 12 1 1 4 4 5 4 4 3 4 4 4 2 3 2 1 6 15 3 9 9 2 2 10 7 4 3 4 4 4 4 5 6 5
17 14 11 10 11 10 11 4 2 2 15 4 3 3 6 4 7 7 6 7 5 2 4 3 2 2 3 8 8 6 6 4 8 10 8 4 4 4 4 7 4 4 6 9
16 13 10 8 9 6 6 4 2 3 2 2 3 2 3 6 5 2 9 6 5 2 4 2 3 1 4 4 8 4 4 2 1 5 6 6 6 5 4 3 5 6 5 9
15 12 9 7 7 4 2 3 4 5 4 7 4 2 1 3 6 2 5 4 14 4 4 5 6 4 3 2 6 3 4 1 2 3 5 5 3 5 6 6 5 5 2 8
13 12 10 6 5 3 2 1 2 2 3 4 1 1 4 4 8 3 9 6 5 6 4 16 12 2 3 3 1 1 3 3 3 4 5 1 3 7 5 5 3 5 6 8
11 11 10 7 6 4 3 3 1 2 3 1 1 5 8 7 6 4 10 9 5 10 18 6 3 2 4 8 5 1 3 4 2 3 4 1 9 4 5 6 4 2 1 3
11 9 8 8 7 5 4 5 2 1 3 4 7 6 4 13 9 3 4 7 12 21 7 4 5 5 4 5 4 6 3 2 3 3 3 6 3 5 3 6 0 4 4 6
11 9 7 8 7 7 4 7 5 3 3 4 1 4 7 3 3 5 4 11 10 12 3 3 3 3 2 5 9 5 4 4 2 3 3 5 5 5 19 6 2 4 5 7
11 9 6 9 7 8 6 10 7 6 5 8 6 3 3 5 4 3 5 11 7 7 3 2 2 3 1 2 2 4 5 3 3 3 4 6 1 12 12 5 7 2 23 17
10 8 6 8 6 8 6 8 11 10 8 18 19 13 13 13 5 1 7 5 3 5 4 3 1 1 3 1 3 3 3 1 3 0 3 4 8 11 6 3 17 29 25 20
10 7 6 8 7 10 7 8 12 13 12 13 13 18 24 23 20 13 5 4 4 2 3 0 3 2 1 1 3 1 3 5 3 6 4 3 5 7 18 7 15 20 25 19
10 8 6 7 6 11 9 6 5 8 15 28 19 13 5 23 28 24 11 6 4 2 1 3 2 3 3 3 5 2 4 4 3 3 3 9 3 9 7 9 14 14 25 31
10 9 6 7 7 11 10 5 3 5 6 5 8 8 11 11 8 18 31 31 5 4 7 0 2 2 5 3 3 3 5 3 3 5 8 10 2 10 6 8 13 15 19 18
10 9 7 7 6 9 7 5 5 7 5 4 15 28 9 12 16 20 19 29 34 22 4 1 3 4 3 2 2 3 7 6 4 5 5 4 6 8 9 15 13 15 24 18
9 7 7 8 9 9 6 2 5 8 11 5 4 10 6 3 8 16 21 24 24 14 6 6 5 6 8 4 4 9 18 18 20 8 3 11 19 13 12 16 24 21 16 16
7 7 8 7 13 13 6 3 2 4 4 3 6 7 7 11 4 12 14 20 18 14 8 8 8 6 9 2 4 10 16 25 25 25 21 22 17 7 9 17 13 17 19 20
7 7 7 12 11 10 10 6 2 4 4 4 3 5 9 11 4 4 7 11 15 10 9 4 5 6 6 5 11 21 27 21 27 28 24 30 22 30 29 26 17 19 24 21
10 12 11 9 6 6 4 3 5 4 4 3 2 2 3 13 5 4 2 5 2 7 3 6 5 3 5 7 18 24 28 31 31 14 18 21 25 23 18 11 5 27 30 26
16 17 4 4 6 7 4 4 3 3 3 4 4 4 3 8 7 4 5 2 3 2 5 7 4 9 27 31 26 19 21 25 32 30 28 20 16 12 13 11 20 27 27 30
15 6 3 6 6 5 3 3 3 3 3 5 6 9 4 5 2 3 2 2 1 2 3 3 3 4 11 35 39 38 33 25 21 22 22 17 11 9 10 16 21 25 21 17
9 6 8 7 5 3 2 2 2 3 3 4 4 7 10 5 6 2 2 2 2 5 6 1 3 5 12 9 17 27 29 24 14 12 11 11 18 18 17 18 26 25 21 21
10 4 4 3 3 2 4 4 3 3 4 4 3 4 4 3 4 1 1 1 4 11 2 4 5 10 12 12 10 10 12 12 8 11 15 11 9 18 19 30 31 25 18 15
4 4 3 3 3 4 4 4 3 6 4 9 9 6 2 1 1 2 2 3 2 3 3 5 4 18 17 9 6 10 17 9 6 9 8 9 13 26 32 27 19 14 14 21
4 4 3 5 8 6 7 9 8 6 5 5 6 5 1 2 3 3 2 1 4 4 4 3 14 18 11 8 13 7 13 14 11 7 9 10 14 17 21 20 16 15 20 21
3 4 2 5 4 3 4 2 5 4 3 4 2 2 2 4 2 2 5 3 5 4 3 7 13 13 12 13 11 7 11 11 16 15 12 10 11 9 11 14 12 12 12 14
2 4 6 10 7 7 7 8 4 1 1 1 1 3 6 2 3 3 3 3 3 19 17 11 10 12 7 7 6 9 13 18 17 15 12 11 10 11 13 16 17 16 16 17
Wind_Direction
325 325 326 330 333 344 337 351 38 151 145 78 91 164 203 301 284 291 253 211 211 224 260 246 248 231 209 324 161 174 203 152 232 223 257 242 191 225 161 139 220 171 163 268
328 325 326 332 337 351 1 1 45 165 192 120 288 293 282 258 269 269 251 269 235 215 243 321 193 268 259 337 161 175 171 254 310 332 352 18 211 181 147 132 91 189 144 263
326 326 326 327 333 348 357 9 52 138 208 250 113 359 294 291 286 262 232 249 271 279 195 240 252 290 305 343 358 23 145 127 167 218 206 163 275 190 171 126 116 189 221 238
323 322 322 319 327 343 1 22 28 30 297 5 328 198 295 301 333 248 10 345 343 252 269 166 225 250 316 300 353 54 91 162 330 225 209 179 194 241 173 153 178 162 243 203
322 318 317 309 314 329 52 53 10 351 292 312 335 38 7 323 323 268 325 2 319 314 184 227 236 184 204 252 341 61 359 140 72 269 237 256 282 267 170 207 199 245 228 285
321 319 311 293 287 273 116 217 307 316 311 343 57 201 310 318 327 294 336 326 314 9 2 315 282 133 128 181 328 22 78 107 71 288 350 301 2 246 234 228 181 153 184 232
318 317 305 289 268 247 223 162 25 4 284 312 335 330 311 310 322 259 290 340 359 324 326 317 276 61 102 72 36 125 137 105 97 219 22 305 239 287 250 236 97 279 335 205
305 312 304 293 256 238 208 176 164 96 273 303 290 334 297 316 323 291 283 322 329 336 345 33 10 346 10 8 20 338 62 130 111 158 181 280 286 328 192 171 263 336 275 140
296 296 294 289 251 234 196 180 185 215 311 244 310 307 295 287 314 331 292 332 331 356 69 77 156 220 239 320 341 32 10 91 134 125 156 220 252 347 331 314 293 332 344 63
285 285 279 279 257 214 200 181 196 209 254 266 266 233 276 316 336 282 296 329 322 6 74 72 166 225 185 232 203 334 319 3 213 164 191 279 354 303 313 156 222 182 99 80
272 279 268 271 242 196 206 187 213 224 251 270 261 249 261 274 274 258 314 348 324 2 84 142 190 197 225 241 257 195 186 138 236 263 145 269 355 346 181 327 152 131 117 116
261 266 250 264 214 183 207 224 221 238 262 260 267 269 257 251 247 276 296 277 260 210 80 112 121 188 217 183 277 94 264 188 231 191 242 248 37 284 297 266 219 151 141 141
251 251 237 252 232 187 207 240 232 259 278 289 274 278 292 238 242 241 226 264 247 204 310 153 143 203 146 174 241 262 236 175 212 359 269 253 66 282 305 276 245 206 187 176
235 237 232 239 225 188 200 211 259 276 286 278 286 302 283 228 224 233 227 230 229 339 335 263 145 193 186 207 230 198 223 139 251 265 288 286 255 244 254 267 246 238 206 194
221 226 235 231 220 189 187 207 241 245 243 286 290 305 252 234 236 234 231 228 238 261 292 183 233 172 137 236 331 255 190 199 165 230 246 289 319 282 250 246 221 217 217 225
210 221 226 224 179 160 170 243 239 238 240 289 293 309 309 247 222 229 231 230 229 218 207 229 230 207 179 175 214 260 234 233 233 226 164 292 285 301 328 273 250 251 250 243
210 214 207 203 167 168 181 186 207 221 210 259 291 297 306 356 296 218 225 225 216 212 215 219 243 237 184 199 232 258 257 241 246 250 259 278 264 210 339 343 271 242 270 246
184 187 180 160 168 189 222 234 282 178 216 259 282 279 312 1 330 218 200 190 200 216 223 200 192 241 206 245 238 258 268 263 247 251 257 262 275 287 301 318 311 234 209 211
162 144 141 147 177 194 213 222 210 199 246 284 259 284 279 345 333 302 237 200 153 234 202 211 176 225 228 230 228 242 251 237 237 247 255 267 273 286 303 312 211 168 161 163
148 146 147 181 181 194 192 190 200 213 225 236 252 260 272 330 334 314 344 182 212 189 242 153 181 236 240 248 264 270 274 267 253 262 272 283 282 282 275 178 152 164 156 153
156 163 166 159 170 162 188 199 207 188 237 228 242 235 239 255 211 277 358 320 276 234 266 185 227 260 232 243 243 251 260 272 285 271 276 270 256 246 207 191 175 171 168 157
146 147 133 152 188 191 225 196 172 217 232 233 220 251 221 257 225 245 312 255 26 240 321 208 262 240 251 273 248 244 252 263 241 222 221 244 248 235 206 187 169 159 155 166
155 153 156 167 166 170 216 193 211 215 207 242 279 307 251 220 227 250 38 267 242 322 237 231 237 276 299 300 274 244 224 173 194 221 226 225 221 194 181 155 149 154 170 190
186 165 155 209 185 239 203 210 197 221 253 301 310 285 274 285 182 164 182 251 329 297 279 246 294 326 333 330 344 192 164 158 182 186 175 166 154 160 167 163 176 188 182 165
204 199 201 213 232 247 244 253 260 268 277 299 307 298 283 292 297 192 86 282 259 235 244 256 329 324 321 327 355 159 164 173 179 174 177 160 146 152 150 164 159 160 163 166
212 227 245 253 247 279 353 246 198 202 261 285 274 297 317 257 237 193 203 196 227 256 241 295 324 332 290 297 321 190 163 163 157 158 147 135 142 144 141 142 146 148 164 157
225 251 241 260 266 251 274 253 203 172 312 225 250 236 228 299 260 225 185 228 298 309 313 353 345 341 321 227 224 158 163 151 141 144 140 138 135 136 132 129 129 136 138 138